Crisp Cnty-Cordele AP, Cordel, GA

8:53 AM EDT on April 24, 2017 (GMT -0400)
Crisp County-Cordele

Weather History for KCKF - February, 2014

Change the Weather History Date:

Tuesday, February 25, 2014

  Actual Average (KFZG) Record (KFZG)
Temperature  
Mean Temperature 64 °F -  
Max Temperature 76 °F 64 °F 78 °F (2017)
Min Temperature 52 °F 42 °F 43 °F (2015)
Degree Days  
Heating Degree Days 1    
Growing Degree Days 14 (Base 50)    
Moisture  
Dew Point 47 °F    
Average Humidity 59    
Maximum Humidity 83    
Minimum Humidity 30    
Precipitation  
Precipitation 0.00 in - - ()
Sea Level Pressure  
Sea Level Pressure 30.03 in    
Wind  
Wind Speed 2 mph (WNW)    
Max Wind Speed 10 mph    
Max Gust Speed 16 mph    
Visibility 10 miles    
Events      
Averages and records for this station are not official NWS values.
T = Trace of Precipitation, MM = Missing Value Source: NWS Daily Summary

Daily Weather History Graph

Daily Weather History Graph

Search for Another Location

Airport or City:

Trip Planner

Search our weather history database for the weather conditions in past years. The results will help you decide how hot, cold, wet, or windy it might be!

Date:

Astronomy

Feb. 25, 2014 Rise Set
Actual Time 7:06 AM EST 6:29 PM EST
Civil Twilight 6:42 AM EST 6:54 PM EST
Nautical Twilight 6:13 AM EST 7:22 PM EST
Astronomical Twilight 5:45 AM EST 7:51 PM EST
Moon 3:51 AM EST (2/25) 2:43 PM EST (2/25)
Length of Visible Light 12h 12m
Length of Day
11h 22m
Waning Crescent, 18% of the Moon is Illuminated
Feb 25
Waning Crescent
Mar 1
New
Mar 8
First Quarter
Mar 16
Full
Mar 23
Last Quarter

Hourly Weather History & Observations

Time (EST) Temp. Dew Point Humidity Pressure Visibility Wind Dir Wind Speed Gust Speed Precip Events Conditions
12:15 AM 58.1 °F 48.9 °F 71% 30.09 in 10.0 mi Calm Calm - N/A   Clear
12:35 AM 58.5 °F 46.8 °F 65% 30.08 in 10.0 mi Calm Calm - N/A   Clear
12:55 AM 57.6 °F 43.0 °F 58% 30.07 in 10.0 mi Calm Calm - N/A   Clear
1:15 AM 56.3 °F 45.0 °F 66% 30.08 in 10.0 mi Calm Calm - N/A   Clear
1:35 AM 55.8 °F 46.0 °F 70% 30.08 in 10.0 mi Calm Calm - N/A   Clear
1:55 AM 55.2 °F 45.7 °F 70% 30.06 in 10.0 mi Calm Calm - N/A   Clear
2:15 AM 53.8 °F 45.9 °F 75% 30.06 in 10.0 mi Calm Calm - N/A   Clear
2:35 AM 53.8 °F 45.1 °F 73% 30.06 in 10.0 mi Calm Calm - N/A   Clear
2:55 AM 52.9 °F 47.3 °F 81% 30.05 in 10.0 mi Calm Calm - N/A   Clear
3:15 AM 52.9 °F 47.7 °F 82% 30.06 in 10.0 mi NNE 3.5 mph - N/A   Clear
3:35 AM 55.2 °F 45.0 °F 68% 30.05 in 10.0 mi Calm Calm - N/A   Clear
3:55 AM 55.8 °F 44.8 °F 67% 30.04 in 10.0 mi Calm Calm - N/A   Clear
4:15 AM 54.7 °F 45.7 °F 72% 30.04 in 10.0 mi Calm Calm - N/A   Clear
4:35 AM 53.4 °F 45.9 °F 76% 30.05 in 10.0 mi Calm Calm - N/A   Clear
4:55 AM 54.3 °F 48.0 °F 79% 30.06 in 10.0 mi Calm Calm - N/A   Clear
5:15 AM 54.0 °F 46.9 °F 77% 30.06 in 10.0 mi Calm Calm - N/A   Clear
5:35 AM 53.6 °F 47.5 °F 80% 30.07 in 10.0 mi Calm Calm - N/A   Clear
5:55 AM 53.8 °F 47.7 °F 80% 30.07 in 10.0 mi Calm Calm - N/A   Clear
6:15 AM 54.1 °F 46.8 °F 76% 30.07 in 10.0 mi Calm Calm - N/A   Clear
6:35 AM 53.2 °F 47.3 °F 80% 30.08 in 10.0 mi Calm Calm - N/A   Clear
6:55 AM 52.9 °F 47.3 °F 81% 30.08 in 10.0 mi Calm Calm - N/A   Clear
7:15 AM 52.9 °F 47.1 °F 81% 30.08 in 10.0 mi Calm Calm - N/A   Clear
7:35 AM 53.2 °F 48.2 °F 83% 30.08 in 10.0 mi Calm Calm - N/A   Clear
7:55 AM 54.5 °F 48.2 °F 79% 30.08 in 10.0 mi Calm Calm - N/A   Clear
8:15 AM 54.9 °F 48.6 °F 79% 30.09 in 10.0 mi Calm Calm - N/A   Clear
8:35 AM 56.1 °F 48.7 °F 76% 30.09 in 10.0 mi Calm Calm - N/A   Clear
8:55 AM 57.4 °F 46.0 °F 66% 30.09 in 10.0 mi Calm Calm - N/A   Clear
9:15 AM 59.9 °F 40.1 °F 48% 30.09 in 10.0 mi Calm Calm - N/A   Clear
9:35 AM 62.6 °F 40.1 °F 44% 30.09 in 10.0 mi Calm Calm - N/A   Clear
9:55 AM 64.6 °F 36.1 °F 35% 30.09 in 10.0 mi Calm Calm - N/A   Clear
10:15 AM 66.9 °F 35.8 °F 32% 30.09 in 10.0 mi Calm Calm - N/A   Clear
10:35 AM 68.9 °F 36.0 °F 30% 30.08 in 10.0 mi South 4.6 mph - N/A   Clear
10:55 AM 71.1 °F 39.0 °F 31% 30.09 in 10.0 mi WSW 4.6 mph - N/A   Clear
11:15 AM 71.8 °F 39.6 °F 31% 30.09 in 10.0 mi SW 6.9 mph - N/A   Clear
11:35 AM 72.9 °F 40.3 °F 31% 30.08 in 10.0 mi WSW 10.4 mph - N/A   Scattered Clouds
11:55 AM 73.6 °F 41.0 °F 31% 30.08 in 10.0 mi West 6.9 mph - N/A   Mostly Cloudy
12:15 PM 73.2 °F 42.6 °F 33% 30.08 in 10.0 mi WNW 8.1 mph - N/A   Mostly Cloudy
12:35 PM 74.7 °F 43.3 °F 33% 30.06 in 10.0 mi West 6.9 mph - N/A   Scattered Clouds
12:55 PM 74.1 °F 42.8 °F 32% 30.06 in 10.0 mi NW 8.1 mph - N/A   Scattered Clouds
1:15 PM 74.7 °F 41.9 °F 31% 30.04 in 10.0 mi WNW 5.8 mph - N/A   Scattered Clouds
1:35 PM 76.3 °F 42.4 °F 30% 30.03 in 10.0 mi NW 5.8 mph - N/A   Mostly Cloudy
1:55 PM 73.6 °F 42.3 °F 32% 30.03 in 10.0 mi NNE 6.9 mph - N/A   Overcast
2:15 PM 74.7 °F 43.0 °F 32% 30.02 in 10.0 mi North 6.9 mph - N/A   Overcast
2:35 PM 74.8 °F 42.6 °F 31% 30.01 in 10.0 mi NNE 5.8 mph - N/A   Overcast
2:55 PM 75.0 °F 42.3 °F 31% 29.99 in 10.0 mi NE 4.6 mph 9.2 mph N/A   Scattered Clouds
3:15 PM 75.4 °F 43.9 °F 32% 29.99 in 10.0 mi WNW 8.1 mph - N/A   Clear
3:35 PM 76.1 °F 45.3 °F 33% 29.99 in 10.0 mi NW 9.2 mph - N/A   Clear
3:55 PM 75.0 °F 47.8 °F 38% 29.98 in 10.0 mi WNW 6.9 mph 16.1 mph N/A   Scattered Clouds
4:15 PM 75.4 °F 50.0 °F 41% 29.98 in 10.0 mi WNW 9.2 mph - N/A   Scattered Clouds
4:35 PM 74.5 °F 50.0 °F 42% 29.98 in 10.0 mi WNW 9.2 mph - N/A   Scattered Clouds
4:55 PM 74.5 °F 50.2 °F 42% 29.98 in 10.0 mi West 9.2 mph - N/A   Scattered Clouds
5:15 PM 74.5 °F 49.8 °F 42% 29.98 in 10.0 mi WNW 5.8 mph - N/A   Scattered Clouds
5:35 PM 74.3 °F 49.8 °F 42% 29.97 in 10.0 mi West 5.8 mph - N/A   Scattered Clouds
5:55 PM 72.3 °F 50.0 °F 45% 29.97 in 10.0 mi WNW 4.6 mph - N/A   Clear
6:15 PM 71.4 °F 50.4 °F 47% 29.98 in 10.0 mi WNW 3.5 mph - N/A   Mostly Cloudy
6:35 PM 70.7 °F 50.9 °F 49% 29.98 in 10.0 mi Calm Calm - N/A   Overcast
6:55 PM 69.8 °F 52.0 °F 53% 29.98 in 10.0 mi Calm Calm - N/A   Overcast
7:15 PM 70.5 °F 51.8 °F 51% 29.98 in 10.0 mi Calm Calm - N/A   Overcast
7:35 PM 68.0 °F 53.2 °F 59% 29.97 in 10.0 mi Calm Calm - N/A   Overcast
7:55 PM 65.8 °F 53.6 °F 65% 29.98 in 10.0 mi Calm Calm - N/A   Mostly Cloudy
8:15 PM 63.9 °F 54.3 °F 71% 29.98 in 10.0 mi Calm Calm - N/A   Scattered Clouds
8:35 PM 63.5 °F 53.8 °F 71% 29.98 in 10.0 mi Calm Calm - N/A   Scattered Clouds
8:55 PM 62.2 °F 53.8 °F 74% 29.98 in 10.0 mi Calm Calm - N/A   Scattered Clouds
9:15 PM 61.2 °F 54.3 °F 78% 29.98 in 10.0 mi Calm Calm - N/A   Clear
9:35 PM 61.3 °F 54.1 °F 77% 29.98 in 10.0 mi Calm Calm - N/A   Clear
9:55 PM 61.3 °F 54.1 °F 77% 29.97 in 10.0 mi Calm Calm - N/A   Mostly Cloudy
10:15 PM 60.8 °F 54.1 °F 79% 29.98 in 10.0 mi Calm Calm - N/A   Scattered Clouds
10:35 PM 60.6 °F 54.0 °F 79% 29.97 in 10.0 mi Calm Calm - N/A   Clear
10:55 PM 59.5 °F 53.8 °F 81% 29.97 in 10.0 mi Calm Calm - N/A   Clear
11:15 PM 60.1 °F 53.8 °F 80% 29.97 in 10.0 mi Calm Calm - N/A   Mostly Cloudy
11:35 PM 60.1 °F 54.0 °F 80% 29.96 in 10.0 mi Calm Calm - N/A   Mostly Cloudy
11:55 PM 59.9 °F 54.5 °F 82% 29.96 in 10.0 mi Calm Calm - N/A   Overcast